Date,TemperatureHighF,TemperatureAvgF,TemperatureLowF,DewpointHighF,DewpointAvgF,DewpointLowF,HumidityHigh,HumidityAvg,HumidityLow,PressureMaxIn,PressureMinIn,WindSpeedMaxMPH,WindSpeedAvgMPH,GustSpeedMaxMPH,PrecipitationSumIn
2012-1-1,5,-1,-5,3,-4,-8,91,88,82,0.00,40.00,9,4,14,0.00
2012-1-2,19,13,-2,16,11,-5,97,92,84,0.00,40.00,7,3,14,0.00
2012-1-3,12,6,0,10,3,-3,94,89,83,0.00,40.00,4,3,7,0.00
2012-1-4,20,6,2,8,2,-3,94,83,53,0.00,40.00,6,2,9,0.00
2012-1-5,25,18,7,25,14,-1,99,83,44,0.00,40.00,9,5,17,0.00
2012-1-6,13,6,3,7,0,-3,87,76,57,0.00,40.00,10,5,18,0.00
2012-1-7,14,8,6,11,6,1,95,89,69,0.00,40.00,11,4,18,0.00
2012-1-8,16,11,8,15,10,5,97,93,81,0.00,40.00,12,7,26,0.00
2012-1-9,27,12,4,25,5,-2,97,76,43,0.00,40.00,12,5,28,0.00
2012-1-10,36,31,27,35,30,24,99,93,62,0.00,40.00,16,8,44,0.00
2012-1-11,36,30,15,33,29,13,99,93,74,0.00,40.00,9,4,21,0.00
2012-1-12,14,10,8,13,9,7,96,95,93,0.00,40.00,10,7,21,0.00
2012-1-13,10,7,2,7,2,-6,93,79,57,0.00,40.00,10,6,17,0.00
2012-1-14,12,5,1,-2,-5,-8,78,63,48,0.00,40.00,9,4,15,0.00
2012-1-15,17,7,2,-2,-6,-9,71,53,33,0.00,40.00,7,3,12,0.00
2012-1-16,17,12,7,5,-3,-9,68,52,40,0.00,40.00,12,5,21,0.00
2012-1-17,12,5,-1,0,-5,-11,78,63,54,0.00,40.00,4,3,16,0.00
2012-1-18,15,7,3,-3,-8,-12,60,50,40,0.00,40.00,6,3,11,0.00
2012-1-19,21,9,2,0,-6,-9,60,52,35,0.00,40.00,5,3,13,0.00
2012-1-20,14,7,1,2,-4,-10,72,61,47,0.00,40.00,7,4,12,0.00
2012-1-21,17,10,6,-2,-5,-8,66,50,41,0.00,40.00,9,5,16,0.00
2012-1-22,21,13,6,19,10,-2,95,88,69,0.00,40.00,6,4,10,0.00
2012-1-23,23,18,11,19,16,10,97,92,78,0.00,40.00,7,2,14,0.00
2012-1-24,19,16,11,15,12,8,96,85,74,0.00,40.00,5,2,10,0.00
2012-1-25,10,2,-1,8,0,-3,93,91,90,0.00,40.00,10,6,21,0.00
2012-1-26,3,1,-2,1,-1,-4,91,91,90,0.00,40.00,8,4,12,0.00
2012-1-27,5,1,-7,3,-1,-10,92,90,87,0.00,40.00,5,3,10,0.00
2012-1-28,3,-3,-8,0,-6,-11,89,88,85,0.00,40.00,4,2,8,0.00
2012-1-29,16,5,-1,8,1,-5,88,83,67,0.00,40.00,3,1,6,0.00
2012-1-30,19,16,7,18,13,3,97,91,73,0.00,40.00,3,1,6,0.00
2012-1-31,26,21,16,25,20,15,99,94,76,0.00,40.00,6,2,12,0.00
2012-2-1,36,31,26,36,29,21,99,91,69,0.00,40.00,17,10,37,0.01
2012-2-2,34,29,16,32,28,12,99,96,84,0.00,40.00,18,6,35,0.02
2012-2-3,16,12,7,16,11,5,98,95,90,0.00,40.00,11,4,21,0.00
2012-2-4,31,21,4,22,13,2,94,72,56,0.00,40.00,12,6,26,0.00
2012-2-5,39,36,31,34,30,23,98,78,57,0.00,40.00,12,7,31,0.39
2012-2-6,42,40,37,32,30,28,81,70,63,0.00,40.00,10,5,21,0.54
2012-2-7,45,37,34,30,26,21,78,64,46,0.00,40.00,9,6,18,0.01
2012-2-8,42,39,35,35,30,21,97,72,49,0.00,40.00,15,11,30,0.20
2012-2-9,40,35,31,33,28,22,94,76,52,0.00,40.00,14,6,28,0.27
2012-2-10,40,33,29,34,29,23,99,84,70,0.00,40.00,12,3,24,0.01
2012-2-11,41,36,33,32,29,26,96,75,58,0.00,40.00,14,8,29,0.04
2012-2-12,40,34,31,32,29,24,99,84,61,0.00,40.00,12,5,24,0.01
2012-2-13,34,32,28,34,30,25,99,93,82,0.00,40.00,8,3,19,0.01
2012-2-14,33,29,24,27,21,15,88,73,47,0.00,40.00,10,5,20,0.01
2012-2-15,39,32,28,32,28,23,99,86,61,0.00,40.00,13,7,28,0.06
2012-2-16,35,32,29,33,29,23,99,87,68,0.00,40.00,12,6,26,0.01
2012-2-17,40,31,27,32,28,23,99,91,61,0.00,40.00,6,3,14,0.05
2012-2-18,35,31,27,27,24,21,85,76,63,0.00,40.00,10,6,23,0.01
2012-2-19,37,32,27,30,24,20,97,73,62,0.00,40.00,8,5,16,0.01
2012-2-20,33,30,26,30,26,22,95,85,71,0.00,40.00,15,8,31,0.00
2012-2-21,33,28,25,28,25,19,99,87,65,0.00,40.00,11,5,19,0.00
2012-2-22,35,28,22,28,23,16,91,81,65,0.00,40.00,8,4,15,0.00
2012-2-23,24,21,19,20,17,15,99,82,72,0.00,40.00,6,4,16,0.00
2012-2-24,24,19,14,18,15,9,94,83,71,0.00,40.00,6,2,11,0.00
2012-2-25,35,20,12,25,12,4,84,71,59,0.00,40.00,8,2,21,0.00
2012-2-26,38,33,28,33,31,27,99,93,72,0.00,40.00,9,3,20,0.06
2012-2-27,33,27,16,30,26,13,99,94,78,0.00,40.00,9,3,18,0.01
2012-2-28,21,16,10,20,15,9,97,94,89,0.00,40.00,8,3,20,0.00
2012-2-29,23,14,8,15,11,6,96,89,62,0.00,40.00,6,3,10,0.00
2012-3-1,31,22,7,21,17,6,97,82,63,0.00,40.00,10,5,18,0.01
2012-3-2,34,24,16,24,20,14,98,86,59,0.00,40.00,4,2,9,0.01
2012-3-3,24,16,11,23,15,10,98,95,89,0.00,40.00,11,7,22,0.00
2012-3-4,23,16,11,22,15,10,96,94,90,0.00,40.00,3,1,8,0.00
2012-3-5,25,19,10,25,17,9,98,91,80,0.00,40.00,4,1,6,0.00
2012-3-6,35,28,23,27,23,19,99,83,55,0.00,40.00,10,5,20,0.01
2012-3-7,34,26,17,24,20,14,95,79,57,0.00,40.00,7,3,11,0.01
2012-3-8,25,17,10,18,12,3,99,83,52,0.00,40.00,7,4,13,0.00
2012-3-9,31,17,6,15,7,3,93,67,35,0.00,40.00,8,4,12,0.00
2012-3-10,21,14,11,14,6,-100,84,72,53,0.00,40.00,9,6,14,0.00
2012-3-11,22,14,10,9,4,-1,79,63,47,0.00,40.00,9,6,19,0.00
2012-3-12,25,15,8,8,4,-2,78,62,48,0.00,40.00,5,4,10,0.00
2012-3-13,28,20,10,25,16,5,94,85,74,0.00,40.00,7,3,11,0.00
2012-3-14,34,27,21,27,23,19,99,86,64,0.00,40.00,8,4,14,0.00
2012-3-15,39,30,23,27,23,19,99,78,52,0.00,40.00,8,4,14,0.00
2012-3-16,24,22,19,24,20,17,99,91,80,0.00,40.00,6,2,9,0.00
2012-3-17,32,24,18,22,18,14,97,81,57,0.00,40.00,6,2,9,0.01
2012-3-18,27,20,14,22,18,13,98,90,80,0.00,40.00,3,2,7,0.01
2012-3-19,31,20,12,20,15,9,98,80,57,0.00,40.00,5,2,8,0.00
2012-3-20,23,20,19,21,18,-100,98,94,84,0.00,40.00,7,4,12,0.00
2012-3-21,26,15,8,16,12,7,96,87,60,0.00,40.00,8,4,14,0.00
2012-3-23,34,27,16,27,20,15,96,76,56,0.00,40.00,7,4,15,0.00
2012-3-24,39,30,27,27,23,19,96,76,57,0.00,40.00,10,6,18,0.00
2012-3-25,37,26,17,23,18,11,98,72,49,0.00,40.00,5,4,11,0.00
2012-3-26,41,29,22,25,18,10,68,61,50,0.00,40.00,8,5,19,0.02
2012-3-27,40,35,32,33,28,22,92,76,63,0.00,40.00,10,7,20,0.09
2012-3-28,45,38,34,35,31,28,91,76,54,0.00,40.00,12,6,22,0.02
2012-3-29,46,39,36,34,30,26,92,69,48,0.00,40.00,10,5,20,0.03
2012-3-30,48,38,31,34,30,26,90,72,49,0.00,40.00,4,2,7,0.01
2012-3-31,46,37,31,33,29,25,99,75,45,0.00,40.00,4,2,9,0.00
2012-4-1,41,34,30,34,32,29,99,92,73,0.00,40.00,4,2,9,0.02
2012-4-2,43,32,25,33,26,19,99,81,48,0.00,40.00,9,4,14,0.08
2012-4-3,40,31,24,29,23,18,93,74,57,0.00,40.00,7,4,13,0.03
2012-4-4,44,33,23,34,24,18,94,70,47,0.00,40.00,7,3,19,0.00
2012-4-5,40,38,35,33,30,26,92,75,60,0.00,40.00,12,6,25,0.08
2012-4-6,40,33,30,35,31,29,99,92,74,0.00,40.00,6,3,9,0.18
2012-4-7,39,32,26,30,28,24,99,85,65,0.00,40.00,6,3,14,0.02
2012-4-8,43,33,26,28,25,21,98,72,51,0.00,40.00,5,4,11,0.00
2012-4-9,43,36,28,26,23,20,82,61,41,0.00,40.00,5,3,9,0.00
2012-4-10,45,35,28,26,21,18,80,58,40,0.00,40.00,5,4,9,0.00
2012-4-11,48,36,25,25,20,18,78,55,32,0.00,40.00,4,2,7,0.00
2012-4-12,51,38,30,28,24,20,83,58,33,0.00,40.00,5,2,8,0.00
2012-4-13,50,39,28,31,25,20,96,62,37,0.00,40.00,7,2,11,0.00
2012-4-14,44,39,35,35,27,23,82,62,43,0.00,40.00,13,7,25,0.00
2012-4-15,46,40,37,36,33,30,90,78,53,0.00,40.00,9,7,21,0.00
2012-4-16,49,40,35,36,32,29,94,76,47,0.00,40.00,9,4,15,0.00
2012-4-17,47,39,34,38,36,34,99,88,66,0.00,40.00,5,2,11,0.09
2012-4-18,51,40,33,34,30,27,99,71,40,0.00,40.00,5,3,10,0.03
2012-4-19,55,42,33,30,28,25,80,61,34,0.00,40.00,4,2,9,0.00
2012-4-20,54,42,33,38,30,26,85,64,34,0.00,40.00,6,2,11,0.00
2012-4-21,45,38,33,36,33,30,99,81,64,0.00,40.00,9,3,14,0.00
2012-4-22,50,39,32,38,33,26,99,81,46,0.00,40.00,4,2,9,0.00
2012-4-23,46,39,32,30,26,22,80,61,43,0.00,40.00,6,4,11,0.00
2012-4-24,46,37,29,31,25,22,77,62,45,0.00,40.00,9,5,12,0.00
2012-4-25,54,43,31,29,25,22,78,51,35,0.00,40.00,10,6,17,0.00
2012-4-26,57,46,38,30,26,22,63,47,33,0.00,40.00,8,5,14,0.00
2012-4-27,54,45,37,33,28,23,71,52,33,0.00,40.00,7,4,11,0.00
2012-4-28,44,41,37,35,32,27,89,72,61,0.00,40.00,8,5,19,0.00
2012-4-29,51,44,38,34,30,27,75,61,43,0.00,40.00,8,4,18,0.00
2012-4-30,54,42,34,41,33,27,88,69,44,0.00,40.00,9,4,14,0.00
2012-5-1,45,37,31,34,26,15,99,70,36,0.00,40.00,12,5,21,0.00
2012-5-2,44,34,25,18,13,6,65,42,28,0.00,40.00,8,5,15,0.00
2012-5-3,44,35,24,27,22,16,81,59,45,0.00,40.00,5,3,10,0.00
2012-5-4,47,38,29,29,25,22,78,61,44,0.00,40.00,5,3,10,0.00
2012-5-5,45,39,34,32,29,26,73,67,52,0.00,40.00,8,5,16,0.00
2012-5-6,43,39,34,39,33,28,99,79,65,0.00,40.00,10,6,18,0.19
2012-5-7,47,38,32,39,33,29,99,83,56,0.00,40.00,8,4,15,0.09
2012-5-8,49,40,30,36,32,28,99,73,49,0.00,40.00,9,4,14,0.01
2012-5-9,49,38,29,38,31,25,99,78,52,0.00,40.00,11,5,26,0.02
2012-5-10,44,38,33,38,33,30,98,82,66,0.00,40.00,9,5,29,0.11
2012-5-11,45,38,32,38,32,27,97,81,58,0.00,40.00,8,4,18,0.04
2012-5-12,44,37,30,33,29,26,99,75,50,0.00,40.00,5,3,14,0.01
2012-5-13,44,37,31,33,30,27,94,76,54,0.00,40.00,7,5,18,0.02
2012-5-14,50,40,32,36,30,22,91,68,36,0.00,40.00,11,6,20,0.01
2012-5-15,50,41,31,35,30,27,91,67,42,0.00,40.00,9,4,14,0.00
2012-5-16,53,43,31,34,30,27,91,65,37,0.00,40.00,6,4,10,0.00
2012-5-17,54,43,32,37,32,28,93,67,37,0.00,40.00,6,3,10,0.00
2012-5-18,50,42,31,32,29,25,99,64,39,0.00,40.00,12,6,23,0.00
2012-5-19,50,44,38,31,29,27,72,56,45,0.00,40.00,10,7,22,0.00
2012-5-20,48,44,41,39,35,31,92,72,61,0.00,40.00,5,3,11,0.00
2012-5-21,54,45,37,44,39,35,99,83,51,0.00,40.00,8,3,13,0.00
2012-5-22,58,48,40,45,40,37,99,75,47,0.00,40.00,8,3,14,0.01
2012-5-23,59,49,41,43,40,31,89,72,35,0.00,40.00,9,3,13,0.01
2012-5-24,58,49,42,43,40,37,84,70,54,0.00,40.00,8,4,13,0.00
2012-5-25,50,46,41,39,35,30,81,66,52,0.00,40.00,9,5,21,0.00
2012-5-26,51,44,39,47,39,34,100,82,60,0.00,40.00,7,3,12,0.24
2012-5-27,54,46,41,44,40,35,100,81,55,0.00,40.00,5,2,9,0.20
2012-5-28,53,47,40,36,32,29,75,58,42,0.00,40.00,7,4,15,0.00
2012-5-29,50,44,41,36,33,30,72,64,51,0.00,40.00,8,6,19,0.00
2012-5-30,51,45,42,36,33,31,70,64,55,0.00,40.00,9,6,18,0.00
2012-5-31,51,45,40,34,32,29,75,60,47,0.00,40.00,7,5,14,0.00
2012-6-1,53,45,38,43,35,31,90,69,43,0.00,40.00,8,4,13,0.05
2012-6-2,60,48,35,47,37,31,100,69,42,0.00,40.00,7,3,11,0.16
2012-6-3,49,46,42,45,43,39,100,90,78,0.00,40.00,4,2,9,0.22
2012-6-4,53,46,40,42,39,35,100,76,53,0.00,40.00,8,3,14,0.01
2012-6-5,58,48,40,41,38,35,89,69,47,0.00,40.00,8,4,12,0.00
2012-6-6,53,46,37,47,40,34,95,81,57,0.00,40.00,6,2,11,0.03
2012-6-7,57,48,42,45,41,38,100,81,59,0.00,40.00,6,3,10,0.01
2012-6-8,58,50,41,44,41,37,100,73,58,0.00,40.00,10,5,19,0.00
2012-6-9,53,48,42,44,39,34,100,72,52,0.00,40.00,7,4,12,0.00
2012-6-10,52,46,41,46,43,40,100,89,73,0.00,40.00,5,2,9,0.02
2012-6-11,56,47,37,46,42,37,100,83,58,0.00,40.00,10,4,16,0.02
2012-6-12,50,47,45,47,44,41,100,90,71,0.00,40.00,6,2,11,0.08
2012-6-13,50,45,43,46,44,43,100,96,84,0.00,40.00,5,2,8,0.16
2012-6-14,52,47,42,49,44,39,100,92,73,0.00,40.00,7,2,11,0.09
2012-6-15,56,49,38,39,37,34,100,65,43,0.00,40.00,8,4,15,0.01
2012-6-16,60,50,39,44,42,39,100,76,50,0.00,40.00,7,2,11,0.00
2012-6-17,67,57,44,49,44,40,86,64,41,0.00,40.00,10,5,22,0.00
2012-6-18,61,53,46,47,45,42,89,74,54,0.00,40.00,8,4,14,0.00
2012-6-19,61,52,41,50,45,40,100,79,60,0.00,40.00,9,4,14,0.00
2012-6-20,55,52,44,50,48,44,100,87,80,0.00,40.00,6,3,10,0.00
2012-6-21,69,57,45,53,49,45,100,78,52,0.00,40.00,6,2,11,0.00
2012-6-22,70,61,49,53,49,44,92,66,50,0.00,40.00,8,3,12,0.00
2012-6-23,69,60,48,52,47,44,89,65,48,0.00,40.00,7,4,11,0.00
2012-6-24,57,53,49,51,48,45,100,86,71,0.00,40.00,7,3,11,0.29
2012-6-25,51,47,45,49,47,44,100,99,90,0.00,40.00,5,1,8,0.85
2012-6-26,58,48,43,48,44,41,100,89,68,0.00,40.00,8,3,16,0.37
2012-6-27,59,50,41,50,44,40,100,83,56,0.00,40.00,7,3,10,0.06
2012-6-28,51,47,41,48,45,40,100,92,80,0.00,40.00,3,2,6,0.02
2012-6-29,61,52,45,52,47,43,100,85,60,0.00,40.00,6,2,10,0.01
2012-6-30,63,54,41,49,45,41,100,73,51,0.00,40.00,9,4,14,0.00
2012-7-1,57,51,46,47,43,39,81,73,63,0.00,40.00,9,5,14,0.00
2012-7-2,57,50,40,48,42,38,100,75,62,0.00,40.00,8,4,15,0.00
2012-7-3,51,47,43,44,41,38,100,80,70,0.00,40.00,6,2,14,0.07
2012-7-4,54,48,42,43,41,38,100,77,61,0.00,40.00,10,4,16,0.10
2012-7-5,53,48,44,42,40,38,83,72,63,0.00,40.00,8,4,16,0.00
2012-7-6,58,50,42,45,40,36,83,70,58,0.00,40.00,5,3,9,0.00
2012-7-7,54,50,44,49,43,39,88,77,68,0.00,40.00,4,2,6,0.00
2012-7-8,58,49,42,41,38,36,91,68,46,0.00,40.00,6,4,12,0.00
2012-7-9,60,49,43,44,40,36,94,72,52,0.00,40.00,7,3,16,0.02
2012-7-10,59,50,36,44,41,36,100,75,54,0.00,40.00,7,3,19,0.02
2012-7-11,49,47,45,43,41,39,85,78,72,0.00,40.00,10,8,29,0.11
2012-7-12,53,50,46,46,40,37,91,71,62,0.00,40.00,13,7,27,0.03
2012-7-13,56,50,43,48,46,41,100,86,71,0.00,40.00,8,3,14,0.02
2012-7-14,59,49,41,46,44,41,100,84,57,0.00,40.00,6,2,11,0.07
2012-7-15,56,49,45,48,44,38,100,81,64,0.00,40.00,9,3,21,0.10
2012-7-16,57,50,45,48,45,40,100,85,63,0.00,40.00,9,4,16,0.04
2012-7-17,67,54,38,48,44,38,100,73,48,0.00,40.00,5,3,9,0.01
2012-7-18,64,54,41,51,46,41,100,77,53,0.00,40.00,7,3,11,0.00
2012-7-19,63,57,49,51,48,45,90,72,59,0.00,40.00,7,4,13,0.00
2012-7-20,68,59,49,53,49,46,90,72,56,0.00,40.00,4,2,10,0.00
2012-7-21,62,55,51,53,50,47,100,85,69,0.00,40.00,7,3,13,0.20
2012-7-22,61,54,49,51,48,46,100,84,62,0.00,40.00,6,2,11,0.19
2012-7-23,55,51,48,50,47,45,100,86,72,0.00,40.00,4,2,9,0.02
2012-7-24,56,50,47,53,49,47,100,95,74,0.00,40.00,4,1,6,0.02
2012-7-25,65,55,47,54,50,45,100,83,60,0.00,40.00,7,2,11,0.01
2012-7-26,64,53,42,52,48,42,100,84,62,0.00,40.00,8,2,12,0.00
2012-7-27,67,56,43,53,48,43,100,76,53,0.00,40.00,6,3,11,0.00
2012-7-28,68,57,46,54,48,45,100,77,50,0.00,40.00,7,3,12,0.00
2012-7-29,63,55,50,48,45,43,93,72,54,0.00,40.00,5,3,17,0.01
2012-7-30,54,51,46,48,45,42,92,82,72,0.00,40.00,8,3,17,0.16
2012-7-31,60,52,44,52,47,44,100,84,64,0.00,40.00,5,2,12,0.01
2012-8-1,56,52,48,49,46,43,100,83,61,0.00,40.00,8,3,23,0.09
2012-8-2,58,53,46,46,44,43,95,73,63,0.00,40.00,7,4,13,0.06
2012-8-3,58,51,43,48,43,41,100,76,58,0.00,40.00,9,4,19,0.00
2012-8-4,53,49,44,45,43,41,92,82,71,0.00,40.00,4,2,9,0.00
2012-8-5,56,50,45,48,44,41,91,80,66,0.00,40.00,3,1,9,0.00
2012-8-6,60,52,44,52,47,42,100,85,60,0.00,40.00,3,1,7,0.02
2012-8-7,62,51,43,51,47,43,100,87,61,0.00,40.00,8,2,11,0.01
2012-8-8,64,53,44,51,48,44,100,84,62,0.00,40.00,6,2,9,0.00
2012-8-9,65,57,44,53,49,43,100,77,57,0.00,40.00,6,2,10,0.00
2012-8-10,60,53,45,52,50,43,100,89,73,0.00,40.00,4,1,7,0.00
2012-8-11,65,53,43,52,47,43,100,84,50,0.00,40.00,6,2,9,0.00
2012-8-12,65,53,43,53,48,43,100,85,59,0.00,40.00,5,2,8,0.00
2012-8-13,67,52,43,53,48,43,100,90,54,0.00,40.00,5,1,8,0.00
2012-8-14,66,54,47,52,48,46,100,84,52,0.00,40.00,7,2,11,0.00
2012-8-15,61,54,49,51,48,45,89,79,66,0.00,40.00,5,2,11,0.00
2012-8-16,60,52,48,49,45,41,91,79,53,0.00,40.00,4,2,7,0.00
2012-8-17,61,51,44,50,46,42,100,83,59,0.00,40.00,7,2,11,0.00
2012-8-18,58,48,41,49,44,41,100,86,63,0.00,40.00,7,2,17,0.09
2012-8-19,60,54,48,49,46,43,83,72,59,0.00,40.00,8,3,16,0.05
2012-8-20,54,50,45,51,48,43,100,93,76,0.00,40.00,8,3,14,0.02
2012-8-21,58,51,42,52,47,42,100,87,66,0.00,40.00,5,2,9,0.02
2012-8-22,60,50,41,50,45,41,100,85,65,0.00,40.00,6,2,10,0.00
2012-8-23,54,50,47,51,48,44,100,90,82,0.00,40.00,8,4,15,0.39
2012-8-24,57,49,42,52,47,42,100,94,79,0.00,40.00,7,2,14,0.03
2012-8-25,61,53,46,50,47,42,100,81,65,0.00,40.00,7,3,11,0.01
2012-8-26,63,54,45,60,48,41,100,81,70,0.00,40.00,6,3,16,0.03
2012-8-27,66,56,49,59,48,36,100,79,41,0.00,40.00,9,7,20,0.03
2012-8-28,64,54,44,40,37,33,69,54,34,0.00,40.00,8,5,20,0.00
2012-8-29,65,54,41,47,41,35,80,63,38,0.00,40.00,5,3,9,0.00
2012-8-30,58,53,47,49,44,40,100,73,57,0.00,40.00,6,4,16,0.22
2012-8-31,51,48,45,50,48,45,100,98,88,0.00,40.00,3,1,6,0.24
2012-9-1,52,47,41,48,45,41,100,96,78,0.00,40.00,7,3,16,0.57
2012-9-2,54,48,39,45,42,39,100,82,65,0.00,40.00,6,4,19,0.02
2012-9-3,56,52,47,47,44,40,90,76,66,0.00,40.00,9,6,17,0.02
2012-9-4,54,48,41,43,40,38,100,76,56,0.00,40.00,19,7,40,0.11
2012-9-5,54,49,45,47,43,39,100,79,66,0.00,40.00,11,6,21,0.20
2012-9-6,53,46,41,43,39,32,92,76,45,0.00,40.00,12,6,24,0.06
2012-9-7,52,45,38,38,36,32,91,72,54,0.00,40.00,5,3,9,0.00
2012-9-8,52,43,40,47,40,35,100,87,60,0.00,40.00,8,4,13,0.16
2012-9-9,57,48,40,37,31,27,81,55,32,0.00,40.00,11,8,24,0.01
2012-9-10,58,46,36,37,32,27,79,59,38,0.00,40.00,5,3,11,0.00
2012-9-11,51,45,37,40,36,30,81,72,62,0.00,40.00,10,5,20,0.01
2012-9-12,46,44,42,45,42,38,100,93,74,0.00,40.00,8,4,17,0.12
2012-9-13,56,46,39,46,42,39,100,86,56,0.00,40.00,5,2,9,0.02
2012-9-14,52,46,40,44,41,39,100,86,63,0.00,40.00,5,2,10,0.01
2012-9-15,51,48,45,49,44,39,100,85,72,0.00,40.00,12,5,32,0.35
2012-9-16,55,50,45,48,42,33,93,75,53,0.00,40.00,15,8,30,0.31
2012-9-17,52,47,44,39,37,33,77,67,50,0.00,40.00,11,7,19,0.01
2012-9-18,53,49,46,50,42,37,98,78,60,0.00,40.00,12,7,30,0.26
2012-9-19,56,53,51,52,47,41,99,79,62,0.00,40.00,15,6,28,0.58
2012-9-20,56,52,48,53,48,43,100,87,77,0.00,40.00,8,2,15,0.06
2012-9-21,59,51,44,51,44,40,91,78,52,0.00,40.00,10,6,25,0.13
2012-9-22,60,53,49,51,48,44,100,81,60,0.00,40.00,10,6,26,0.51
2012-9-23,51,46,42,49,45,41,100,97,87,0.00,40.00,9,4,16,0.46
2012-9-24,53,43,33,45,38,32,100,83,63,0.00,40.00,8,4,16,0.02
2012-9-25,48,45,42,42,38,35,91,76,65,0.00,40.00,16,9,31,0.15
2012-9-26,45,43,41,42,38,36,96,85,72,0.00,40.00,17,8,32,0.61
2012-9-27,47,43,40,41,37,34,92,79,67,0.00,40.00,12,6,22,0.29
2012-9-28,42,37,34,41,34,27,100,87,71,0.00,40.00,8,5,18,0.09
2012-9-29,43,36,30,31,25,21,93,67,43,0.00,40.00,9,4,19,0.01
2012-9-30,44,35,26,32,26,21,85,72,59,0.00,40.00,5,3,9,0.00
2012-10-1,44,38,29,39,31,26,93,76,56,0.00,40.00,3,1,6,0.00
2012-10-2,46,44,42,38,36,33,80,74,63,0.00,40.00,7,3,16,0.00
2012-10-3,51,45,41,45,39,35,91,79,63,0.00,40.00,10,4,24,0.29
2012-10-4,57,52,46,44,42,39,79,69,56,0.00,40.00,9,4,17,0.15
2012-10-5,47,45,44,47,42,37,100,89,72,0.00,40.00,7,3,12,0.40
2012-10-6,54,46,42,45,42,38,100,87,65,0.00,40.00,5,2,11,0.31
2012-10-7,56,49,44,49,46,40,100,87,76,0.00,40.00,5,2,9,0.07
2012-10-8,56,47,42,49,44,42,100,91,67,0.00,40.00,4,2,6,0.01
2012-10-9,47,42,37,45,42,37,100,99,90,0.00,40.00,5,2,8,0.02
2012-10-10,48,40,35,44,39,32,100,94,81,0.00,40.00,5,2,10,0.01
2012-10-11,49,38,31,37,32,29,97,79,60,0.00,40.00,6,2,10,0.00
2012-10-12,46,38,32,33,28,24,82,68,50,0.00,40.00,6,3,11,0.00
2012-10-13,37,33,30,31,27,24,96,76,66,0.00,40.00,6,3,11,0.00
2012-10-14,37,34,32,37,34,31,100,97,88,0.00,40.00,6,2,11,0.10
2012-10-15,36,33,30,35,32,30,100,97,89,0.00,40.00,7,3,13,0.12
2012-10-16,31,28,26,31,28,26,100,98,86,0.00,40.00,5,1,14,0.01
2012-10-17,30,27,25,27,25,22,100,93,80,0.00,40.00,4,1,9,0.00
2012-10-18,36,27,22,27,21,17,94,78,52,0.00,40.00,6,3,11,0.01
2012-10-19,35,27,21,22,18,15,85,70,52,0.00,40.00,7,3,13,0.01
2012-10-20,36,28,21,21,16,14,73,61,43,0.00,40.00,8,5,14,0.00
2012-10-21,34,27,22,18,14,8,67,58,49,0.00,40.00,8,4,14,0.00
2012-10-22,34,25,20,18,12,8,74,57,44,0.00,40.00,6,3,12,0.00
2012-10-23,33,23,15,19,12,6,80,62,48,0.00,40.00,6,2,10,0.00
2012-10-24,38,27,22,19,14,10,65,56,42,0.00,40.00,4,2,6,0.00
2012-10-25,40,30,25,24,16,10,68,56,44,0.00,40.00,6,3,10,0.00
2012-10-26,36,28,24,23,16,8,70,60,42,0.00,40.00,4,2,8,0.00
2012-10-27,37,28,23,20,13,7,66,53,42,0.00,40.00,4,2,8,0.00
2012-10-28,43,30,23,19,13,10,66,51,29,0.00,40.00,4,1,7,0.00
2012-10-29,38,30,26,31,24,15,91,77,63,0.00,40.00,9,3,19,0.00
2012-10-30,31,26,23,28,16,5,100,67,43,0.00,40.00,11,6,21,0.00
2012-10-31,26,22,19,17,9,5,82,57,45,0.00,40.00,9,6,18,0.00
2012-11-1,32,25,19,21,15,10,76,68,58,0.00,40.00,8,5,19,0.00
2012-11-2,36,29,25,31,20,11,93,68,50,0.00,40.00,11,6,21,0.00
2012-11-3,38,33,27,30,26,23,87,78,65,0.00,40.00,9,3,16,0.00
2012-11-4,37,28,22,27,23,16,95,82,64,0.00,40.00,3,1,7,0.00
2012-11-5,27,21,16,20,13,8,100,74,57,0.00,40.00,3,1,8,0.00
2012-11-6,28,20,15,18,14,9,95,79,60,0.00,40.00,3,2,7,0.00
2012-11-7,28,21,15,11,7,2,77,55,36,0.00,40.00,5,2,9,0.00
2012-11-8,37,34,27,31,23,8,92,66,42,0.00,40.00,7,4,14,0.01
2012-11-9,42,40,36,33,31,29,80,73,67,0.00,40.00,10,7,19,0.01
2012-11-10,40,36,31,33,31,29,97,84,73,0.00,40.00,8,3,16,0.00
2012-11-11,42,32,29,34,30,28,100,92,69,0.00,40.00,3,0,4,0.00
2012-11-12,41,34,29,35,32,26,100,92,75,0.00,40.00,4,2,8,0.00
2012-11-13,38,33,29,34,25,16,90,73,52,0.00,40.00,8,3,15,0.05
2012-11-14,38,33,29,35,32,28,100,95,74,0.00,40.00,5,1,10,0.05
2012-11-15,29,27,25,29,27,24,100,100,97,0.00,40.00,3,1,9,0.02
2012-11-16,29,23,16,24,16,6,100,77,56,0.00,40.00,8,3,16,0.00
2012-11-17,18,12,6,8,3,0,86,67,58,0.00,40.00,6,4,14,0.00
2012-11-18,22,16,10,18,13,6,95,88,76,0.00,40.00,3,1,7,0.00
2012-11-19,20,14,9,14,8,3,93,75,53,0.00,40.00,3,2,6,0.00
2012-11-20,21,15,11,11,6,2,86,69,58,0.00,40.00,4,2,9,0.00
2012-11-21,24,16,11,10,6,2,84,66,49,0.00,40.00,3,1,6,0.00
2012-11-22,22,16,13,14,9,6,89,73,62,0.00,40.00,4,2,9,0.00
2012-11-23,27,23,18,19,13,8,80,65,52,0.00,40.00,3,1,6,0.00
2012-11-24,28,23,20,15,11,8,69,59,47,0.00,40.00,5,2,9,0.00
2012-11-25,30,23,17,20,16,10,84,74,59,0.00,40.00,4,2,6,0.00
2012-11-26,29,20,17,16,14,12,87,79,59,0.00,40.00,4,1,6,0.00
2012-11-27,31,24,18,24,14,5,78,64,49,0.00,40.00,5,2,15,0.00
2012-11-28,31,23,19,12,6,-1,59,49,43,0.00,40.00,6,3,15,0.00
2012-11-29,24,18,13,3,-2,-7,54,41,32,0.00,40.00,4,3,9,0.00
2012-11-30,23,15,11,3,1,-2,60,52,38,0.00,40.00,6,4,10,0.00
2012-12-1,24,16,11,-1,-5,-9,49,38,26,0.00,40.00,7,3,12,0.00
2012-12-2,23,15,11,7,0,-5,70,51,34,0.00,40.00,7,3,14,0.00
2012-12-3,13,9,6,1,-4,-7,61,54,49,0.00,40.00,6,4,11,0.00
2012-12-4,8,3,-3,-5,-7,-10,75,62,50,0.00,40.00,5,2,9,0.00
2012-12-5,12,4,-1,1,-6,-10,77,65,53,0.00,40.00,3,2,6,0.00
2012-12-6,15,8,4,0,-6,-100,66,57,44,0.00,40.00,5,2,7,0.00
2012-12-7,27,20,10,19,12,-1,89,71,57,0.00,40.00,5,2,8,0.00
2012-12-8,36,32,25,30,23,18,81,72,68,0.00,40.00,11,6,24,0.01
2012-12-9,39,34,30,34,30,27,100,85,73,0.00,40.00,5,3,14,0.10
2012-12-10,32,30,26,32,30,26,100,100,100,0.00,40.00,3,1,9,0.09
2012-12-11,31,27,24,30,26,22,100,96,82,0.00,40.00,5,2,11,0.00
2012-12-12,36,34,31,36,32,27,100,95,80,0.00,40.00,11,5,21,0.27
2012-12-13,34,31,27,29,27,25,91,84,77,0.00,40.00,12,7,27,0.01
2012-12-14,28,23,16,28,22,13,100,97,88,0.00,40.00,6,2,10,0.00
2012-12-15,17,13,9,16,7,-4,100,79,56,0.00,40.00,9,4,16,0.00
2012-12-16,14,10,7,-3,-6,-11,57,47,36,0.00,40.00,8,5,16,0.00
2012-12-17,20,12,7,-6,-9,-15,49,38,24,0.00,40.00,8,4,13,0.00
2012-12-18,22,16,8,11,5,-5,80,63,37,0.00,40.00,7,3,14,0.00
2012-12-19,18,13,9,9,2,-3,85,62,45,0.00,40.00,9,3,20,0.00
2012-12-20,17,13,8,1,-4,-7,62,47,38,0.00,40.00,10,5,20,0.00
2012-12-21,17,8,5,-1,-5,-9,68,55,39,0.00,40.00,5,2,11,0.00
2012-12-22,20,9,4,17,-2,-11,92,60,45,0.00,40.00,6,2,16,0.00
2012-12-23,28,23,15,26,16,4,100,76,54,0.00,40.00,11,6,21,0.00
2012-12-24,32,29,26,32,28,18,100,94,67,0.00,40.00,13,5,26,0.00
2012-12-25,30,22,15,30,22,12,100,98,92,0.00,40.00,6,2,9,0.00
2012-12-26,37,28,12,33,26,11,100,91,67,0.00,40.00,14,6,26,0.57
2012-12-27,38,36,35,35,32,30,99,84,72,0.00,40.00,13,8,31,0.60
2012-12-28,41,38,35,33,30,28,86,75,63,0.00,40.00,14,5,29,0.01
2012-12-29,42,38,34,35,31,26,100,77,55,0.00,40.00,17,9,44,0.36
2012-12-30,41,37,36,38,34,30,100,88,79,0.00,40.00,17,10,38,0.74
2012-12-31,38,36,34,35,30,25,100,81,63,0.00,40.00,14,7,38,0.20
2013-1-1,37,35,32,36,28,23,100,75,58,0.00,40.00,13,7,26,0.21